When you browse on this site, cookies collect data to enhance your experience and personalize the content and advertising you see.
Visit our Privacy Policy to learn more. By continuing to use the site, you agree to this use of cookies and data.
  • In France
  • List of Countries
  • For 7 days
  • Water Temperature
  • Satellite Maps
  • Weather Map
  • Weather Widgets
  • user-avatar
    Login

    Hourly Weather Malanje

    Today, 23 January, Wednesday

    Time Temperature Precipitation Wind Pressure Humidity
    00:00 +19°C° 1.2 mm 2 mps 665 mmHg 97%
    01:00 +19°C° 1.2 mm 2 mps 665 mmHg 98%
    02:00 +19°C° 0.6 mm 2 mps 665 mmHg 98%
    03:00 +19°C° 0.6 mm 2 mps 665 mmHg 98%
    04:00 +19°C° 0.6 mm 2 mps 665 mmHg 98%
    05:00 +19°C° 0.1 mm 2 mps 665 mmHg 98%
    06:00 +18°C° 0.1 mm 3 mps 665 mmHg 97%
    07:00 +18°C° 0.1 mm 3 mps 665 mmHg 97%
    08:00 +19°C° 0 mm 3 mps 666 mmHg 95%
    09:00 +20°C° 0 mm 3 mps 666 mmHg 93%
    10:00 +20°C° 0 mm 3 mps 666 mmHg 91%
    11:00 +22°C° 0.1 mm 3 mps 666 mmHg 86%
    12:00 +24°C° 0.1 mm 3 mps 666 mmHg 82%
    13:00 +25°C° 0.1 mm 3 mps 666 mmHg 77%
    14:00 +25°C° 0.3 mm 3 mps 665 mmHg 80%
    15:00 +25°C° 0.3 mm 2 mps 665 mmHg 83%
    16:00 +24°C° 0.3 mm 2 mps 664 mmHg 87%
    17:00 +23°C° 0.4 mm 2 mps 664 mmHg 90%
    18:00 +21°C° 0.4 mm 2 mps 664 mmHg 94%
    19:00 +20°C° 0.4 mm 2 mps 664 mmHg 98%
    20:00 +20°C° 0 mm 2 mps 665 mmHg 98%
    21:00 +20°C° 0 mm 2 mps 665 mmHg 98%
    22:00 +19°C° 0 mm 2 mps 666 mmHg 98%
    23:00 +19°C° 0 mm 2 mps 665 mmHg 98%

    Tomorrow, 24 January, Thursday

    Time Temperature Precipitation Wind Pressure Humidity
    00:00 +19°C° 0 mm 2 mps 665 mmHg 98%
    01:00 +19°C° 0 mm 2 mps 665 mmHg 98%
    02:00 +19°C° 0 mm 2 mps 665 mmHg 98%
    03:00 +19°C° 0 mm 2 mps 664 mmHg 98%
    04:00 +19°C° 0 mm 2 mps 664 mmHg 98%
    05:00 +19°C° 0 mm 2 mps 664 mmHg 98%
    06:00 +19°C° 0 mm 2 mps 665 mmHg 97%
    07:00 +19°C° 0 mm 2 mps 665 mmHg 97%
    08:00 +20°C° 0 mm 2 mps 665 mmHg 95%
    09:00 +21°C° 0 mm 1 mps 665 mmHg 92%
    10:00 +22°C° 0 mm 1 mps 666 mmHg 90%
    11:00 +23°C° 0 mm 1 mps 665 mmHg 85%
    12:00 +24°C° 0 mm 1 mps 665 mmHg 81%
    13:00 +26°C° 0 mm 1 mps 665 mmHg 76%
    14:00 +26°C° 0.2 mm 1 mps 664 mmHg 75%
    15:00 +27°C° 0.2 mm 1 mps 664 mmHg 74%
    16:00 +25°C° 0.2 mm 0 mps 663 mmHg 72%
    17:00 +25°C° 2.1 mm 1 mps 663 mmHg 79%
    18:00 +24°C° 2.1 mm 1 mps 663 mmHg 86%
    19:00 +22°C° 2.1 mm 1 mps 663 mmHg 93%
    20:00 +22°C° 2.4 mm 1 mps 664 mmHg 94%
    21:00 +21°C° 2.4 mm 1 mps 664 mmHg 95%
    22:00 +21°C° 2.4 mm 1 mps 665 mmHg 96%
    23:00 +21°C° 1.8 mm 1 mps 665 mmHg 96%

    Day after tomorrow, 25 January, Friday

    Time Temperature Precipitation Wind Pressure Humidity
    00:00 +21°C° 1.8 mm 1 mps 664 mmHg 97%
    01:00 +21°C° 1.8 mm 1 mps 664 mmHg 97%
    02:00 +21°C° 1.6 mm 1 mps 664 mmHg 97%
    03:00 +21°C° 1.6 mm 1 mps 664 mmHg 97%
    04:00 +21°C° 1.6 mm 1 mps 664 mmHg 97%
    05:00 +20°C° 1 mm 1 mps 664 mmHg 97%
    06:00 +20°C° 1 mm 1 mps 664 mmHg 97%
    07:00 +20°C° 1 mm 1 mps 665 mmHg 97%
    08:00 +21°C° 0.4 mm 1 mps 665 mmHg 96%
    09:00 +22°C° 0.4 mm 1 mps 666 mmHg 95%
    10:00 +22°C° 0.4 mm 1 mps 666 mmHg 94%
    11:00 +23°C° 0 mm 1 mps 666 mmHg 88%
    12:00 +24°C° 0 mm 1 mps 665 mmHg 83%
    13:00 +26°C° 0 mm 1 mps 665 mmHg 77%
    14:00 +25°C° 0.1 mm 1 mps 664 mmHg 79%
    15:00 +25°C° 0.1 mm 1 mps 664 mmHg 81%
    16:00 +25°C° 0.1 mm 1 mps 663 mmHg 83%
    17:00 +24°C° 0.4 mm 1 mps 664 mmHg 88%
    18:00 +23°C° 0.4 mm 1 mps 664 mmHg 92%
    19:00 +22°C° 0.4 mm 1 mps 664 mmHg 96%
    20:00 +21°C° 0.5 mm 1 mps 665 mmHg 96%
    21:00 +19°C° 0.5 mm 0 mps 666 mmHg 96%
    22:00 +19°C° 0.5 mm 0 mps 666 mmHg 96%
    23:00 +19°C° 0 mm 0 mps 666 mmHg 96%

    26 January, Saturday

    Time Temperature Precipitation Wind Pressure Humidity
    00:00 +18°C° 0 mm 0 mps 665 mmHg 96%
    01:00 +18°C° 0 mm 0 mps 665 mmHg 97%
    02:00 +18°C° 0.1 mm 0 mps 665 mmHg 97%
    03:00 +17°C° 0.1 mm 0 mps 665 mmHg 97%
    04:00 +17°C° 0.1 mm 0 mps 664 mmHg 97%
    05:00 +18°C° 0 mm 0 mps 665 mmHg 96%
    06:00 +18°C° 0 mm 0 mps 666 mmHg 96%
    07:00 +19°C° 0 mm 0 mps 666 mmHg 95%
    08:00 +21°C° 0.3 mm 0 mps 667 mmHg 90%
    09:00 +23°C° 0.3 mm 0 mps 667 mmHg 85%
    10:00 +24°C° 0.3 mm 0 mps 668 mmHg 81%
    11:00 +27°C° 0.5 mm 1 mps 667 mmHg 77%
    12:00 +27°C° 0.5 mm 1 mps 667 mmHg 73%
    13:00 +27°C° 0.5 mm 2 mps 666 mmHg 70%
    14:00 +27°C° 0.4 mm 2 mps 666 mmHg 73%
    15:00 +27°C° 0.4 mm 2 mps 665 mmHg 76%
    16:00 +26°C° 0.4 mm 2 mps 665 mmHg 79%
    17:00 +25°C° 0.1 mm 1 mps 665 mmHg 83%
    18:00 +24°C° 0.1 mm 1 mps 665 mmHg 87%
    19:00 +22°C° 0.1 mm 1 mps 665 mmHg 91%
    20:00 +22°C° 0 mm 1 mps 665 mmHg 93%
    21:00 +21°C° 0 mm 1 mps 666 mmHg 94%
    22:00 +20°C° 0 mm 1 mps 666 mmHg 96%
    23:00 +20°C° 0.2 mm 1 mps 666 mmHg 97%

    27 January, Sunday

    Time Temperature Precipitation Wind Pressure Humidity
    00:00 +20°C° 0.2 mm 1 mps 665 mmHg 98%
    01:00 +20°C° 0.2 mm 1 mps 665 mmHg 98%
    02:00 +20°C° 0 mm 1 mps 665 mmHg 98%
    03:00 +20°C° 0 mm 1 mps 664 mmHg 98%
    04:00 +20°C° 0 mm 1 mps 664 mmHg 98%
    05:00 +20°C° 0 mm 1 mps 665 mmHg 98%
    06:00 +20°C° 0 mm 1 mps 665 mmHg 97%
    07:00 +21°C° 0 mm 1 mps 666 mmHg 96%
    08:00 +22°C° 0.1 mm 1 mps 666 mmHg 90%
    09:00 +24°C° 0.1 mm 1 mps 667 mmHg 83%
    10:00 +26°C° 0.1 mm 1 mps 667 mmHg 76%
    11:00 +27°C° 0.1 mm 2 mps 667 mmHg 71%
    12:00 +28°C° 0.1 mm 2 mps 666 mmHg 67%
    13:00 +29°C° 0.1 mm 2 mps 666 mmHg 62%
    14:00 +29°C° 0.2 mm 2 mps 665 mmHg 63%
    15:00 +28°C° 0.2 mm 2 mps 665 mmHg 64%
    16:00 +28°C° 0.2 mm 2 mps 664 mmHg 64%
    17:00 +26°C° 0.7 mm 2 mps 664 mmHg 73%
    18:00 +24°C° 0.7 mm 1 mps 664 mmHg 82%
    19:00 +22°C° 0.7 mm 1 mps 664 mmHg 91%
    20:00 +22°C° 0 mm 1 mps 665 mmHg 92%
    21:00 +21°C° 0 mm 1 mps 665 mmHg 93%
    22:00 +21°C° 0 mm 1 mps 665 mmHg 94%
    23:00 +20°C° 0 mm 1 mps 665 mmHg 95%

    28 January, Monday

    Time Temperature Precipitation Wind Pressure Humidity
    00:00 +20°C° 0 mm 1 mps 665 mmHg 96%
    01:00 +20°C° 0 mm 1 mps 665 mmHg 97%
    02:00 +20°C° 0 mm 1 mps 664 mmHg 98%
    03:00 +19°C° 0 mm 1 mps 664 mmHg 98%
    04:00 +19°C° 0 mm 1 mps 664 mmHg 99%
    05:00 +19°C° 0 mm 1 mps 664 mmHg 98%
    06:00 +19°C° 0 mm 2 mps 665 mmHg 98%
    07:00 +19°C° 0 mm 2 mps 665 mmHg 97%
    08:00 +20°C° 0 mm 2 mps 666 mmHg 93%
    09:00 +23°C° 0 mm 2 mps 666 mmHg 89%
    10:00 +24°C° 0 mm 2 mps 666 mmHg 85%
    11:00 +25°C° 0 mm 2 mps 666 mmHg 76%
    12:00 +27°C° 0 mm 2 mps 666 mmHg 68%
    13:00 +29°C° 0 mm 2 mps 665 mmHg 59%
    14:00 +29°C° 0 mm 2 mps 665 mmHg 60%
    15:00 +29°C° 0 mm 2 mps 664 mmHg 61%
    16:00 +29°C° 0 mm 2 mps 664 mmHg 62%
    17:00 +27°C° 0 mm 2 mps 664 mmHg 68%
    18:00 +25°C° 0 mm 1 mps 664 mmHg 75%
    19:00 +23°C° 0 mm 1 mps 664 mmHg 82%
    20:00 +22°C° 0 mm 1 mps 664 mmHg 83%
    21:00 +22°C° 0 mm 1 mps 664 mmHg 83%
    22:00 +21°C° 0 mm 1 mps 665 mmHg 84%
    23:00 +21°C° 0 mm 1 mps 664 mmHg 84%
    Show more